Location: Boiro
(42.6475°N, 8.8834°W)
Time: 02:05:29
(UTC+02:00)

LINGQIAO VIDEO B - Pass Details

Date: 29 June 2022
Orbit: 636 x 662 km, 97.7° (Epoch: 14 August)

Event Time Altitude Azimuth Distance (km) Brightness Sun altitude
Rises 23:47:57 0° 204° (SSW) 2,959 ? -13.3°
Reaches altitude 10° 23:50:44 10° 222° (SW) 2,059 ? -13.6°
Maximum altitude 23:53:55 19° 268° (W) 1,557 ? -14.0°
Drops below altitude 10° 23:57:09 10° 313° (NW) 2,081 ? -14.3°
Sets 23:59:59 0° 332° (NNW) 3,002 ? -14.6°
